Time,TemperatureF,DewpointF,PressureIn,WindDirection,WindDirectionDegrees,WindSpeedMPH,WindSpeedGustMPH,Humidity,HourlyPrecipIn,Conditions,Clouds,dailyrainin,SoftwareType,DateUTC
2013-05-04 00:01:00,47.7,28.5,29.90,SSW,202,2.2,-999.0,47,-99.99,,,0.00,Acu-Link.com,2013-05-04 05:01:00,
2013-05-04 00:16:00,46.8,28.2,29.90,SSW,202,0.0,-999.0,48,-99.99,,,0.00,Acu-Link.com,2013-05-04 05:16:00,
2013-05-04 00:32:00,46.8,27.6,29.89,SSW,202,0.0,-999.0,47,-99.99,,,0.00,Acu-Link.com,2013-05-04 05:32:00,
2013-05-04 00:47:00,46.9,28.2,29.90,SSW,202,2.2,-999.0,48,-99.99,,,0.00,Acu-Link.com,2013-05-04 05:47:00,
2013-05-04 01:02:00,44.8,27.8,29.89,SSW,202,0.0,-999.0,51,-99.99,,,0.00,Acu-Link.com,2013-05-04 06:02:00,
2013-05-04 01:17:00,45.7,28.6,29.88,SSW,202,1.7,-999.0,51,-99.99,,,0.00,Acu-Link.com,2013-05-04 06:17:00,
2013-05-04 01:33:00,45.3,28.3,29.88,SSW,202,1.7,-999.0,51,-99.99,,,0.00,Acu-Link.com,2013-05-04 06:33:00,
2013-05-04 01:48:00,45.9,28.3,29.88,SSW,202,2.2,-999.0,50,-99.99,,,0.00,Acu-Link.com,2013-05-04 06:48:00,
2013-05-04 02:03:00,43.7,27.2,29.87,SSW,202,0.0,-999.0,52,-99.99,,,0.00,Acu-Link.com,2013-05-04 07:03:00,
2013-05-04 02:19:00,42.3,27.7,29.87,SSW,202,0.0,-999.0,56,-99.99,,,0.00,Acu-Link.com,2013-05-04 07:19:00,
2013-05-04 02:34:00,42.4,27.8,29.86,SSW,202,0.0,-999.0,56,-99.99,,,0.00,Acu-Link.com,2013-05-04 07:34:00,
2013-05-04 02:49:00,42.8,28.6,29.86,SSW,202,0.0,-999.0,57,-99.99,,,0.00,Acu-Link.com,2013-05-04 07:49:00,
2013-05-04 03:05:00,42.1,28.4,29.86,SSW,202,0.0,-999.0,58,-99.99,,,0.00,Acu-Link.com,2013-05-04 08:05:00,
2013-05-04 03:20:00,43.0,29.2,29.85,SSW,202,0.0,-999.0,58,-99.99,,,0.00,Acu-Link.com,2013-05-04 08:20:00,
2013-05-04 03:35:00,42.8,28.2,29.85,SSW,202,0.0,-999.0,56,-99.99,,,0.00,Acu-Link.com,2013-05-04 08:35:00,
2013-05-04 03:50:00,42.6,29.3,29.85,SSW,202,0.0,-999.0,59,-99.99,,,0.00,Acu-Link.com,2013-05-04 08:50:00,
2013-05-04 04:05:00,41.4,29.4,29.85,SSW,202,0.0,-999.0,62,-99.99,,,0.00,Acu-Link.com,2013-05-04 09:05:00,
2013-05-04 04:20:00,39.7,28.5,29.85,SSW,202,0.0,-999.0,64,-99.99,,,0.00,Acu-Link.com,2013-05-04 09:20:00,
2013-05-04 04:36:00,38.7,29.4,29.85,SSW,202,0.0,-999.0,69,-99.99,,,0.00,Acu-Link.com,2013-05-04 09:36:00,
2013-05-04 04:51:00,38.5,29.9,29.85,SSW,202,0.0,-999.0,71,-99.99,,,0.00,Acu-Link.com,2013-05-04 09:51:00,
2013-05-04 05:06:00,37.9,29.7,29.85,SSW,202,0.0,-999.0,72,-99.99,,,0.00,Acu-Link.com,2013-05-04 10:06:00,
2013-05-04 05:22:00,37.2,29.7,29.85,SSW,202,0.0,-999.0,74,-99.99,,,0.00,Acu-Link.com,2013-05-04 10:22:00,
2013-05-04 05:37:00,36.5,30.0,29.85,SSW,202,0.0,-999.0,77,-99.99,,,0.00,Acu-Link.com,2013-05-04 10:37:00,
2013-05-04 05:52:00,36.3,29.5,29.85,SSW,202,0.0,-999.0,76,-99.99,,,0.00,Acu-Link.com,2013-05-04 10:52:00,
2013-05-04 06:08:00,36.1,29.9,29.87,SSW,202,0.0,-999.0,78,-99.99,,,0.00,Acu-Link.com,2013-05-04 11:08:00,
2013-05-04 06:23:00,36.1,29.9,29.86,SSW,202,0.0,-999.0,78,-99.99,,,0.00,Acu-Link.com,2013-05-04 11:23:00,
2013-05-04 06:38:00,35.8,29.6,29.87,SSW,202,0.0,-999.0,78,-99.99,,,0.00,Acu-Link.com,2013-05-04 11:38:00,
2013-05-04 06:53:00,35.8,30.2,29.88,SSW,202,0.0,-999.0,80,-99.99,,,0.00,Acu-Link.com,2013-05-04 11:53:00,
2013-05-04 07:39:00,37.8,31.2,29.91,SSW,202,0.0,-999.0,77,-99.99,,,0.00,Acu-Link.com,2013-05-04 12:39:00,
2013-05-04 07:55:00,41.9,34.2,29.92,SSW,202,2.7,-999.0,74,-99.99,,,0.00,Acu-Link.com,2013-05-04 12:55:00,
2013-05-04 08:10:00,42.8,32.6,29.91,SSW,202,2.2,-999.0,67,-99.99,,,0.00,Acu-Link.com,2013-05-04 13:10:00,
2013-05-04 08:26:00,46.6,32.6,29.91,SSW,202,0.0,-999.0,58,-99.99,,,0.00,Acu-Link.com,2013-05-04 13:26:00,
2013-05-04 08:41:00,52.5,33.9,29.91,SSW,202,2.2,-999.0,49,-99.99,,,0.00,Acu-Link.com,2013-05-04 13:41:00,
2013-05-04 08:56:00,55.9,32.5,29.90,SW,225,3.2,-999.0,41,-99.99,,,0.00,Acu-Link.com,2013-05-04 13:56:00,
2013-05-04 09:11:00,60.3,31.8,29.90,SW,225,6.3,-999.0,34,-99.99,,,0.00,Acu-Link.com,2013-05-04 14:11:00,
2013-05-04 09:26:00,65.5,27.8,29.90,WSW,247,4.2,-999.0,24,-99.99,,,0.00,Acu-Link.com,2013-05-04 14:26:00,
2013-05-04 09:42:00,65.5,26.7,29.90,West,270,5.3,-999.0,23,-99.99,,,0.00,Acu-Link.com,2013-05-04 14:42:00,
2013-05-04 09:57:00,68.0,27.7,29.90,West,270,5.3,-999.0,22,-99.99,,,0.00,Acu-Link.com,2013-05-04 14:57:00,
2013-05-04 10:12:00,68.9,26.2,29.90,WNW,292,7.8,-999.0,20,-99.99,,,0.00,Acu-Link.com,2013-05-04 15:12:00,
2013-05-04 10:27:00,69.3,26.5,29.91,North,0,4.7,-999.0,20,-99.99,,,0.00,Acu-Link.com,2013-05-04 15:27:00,
2013-05-04 10:42:00,69.6,27.9,29.90,West,270,3.2,-999.0,21,-99.99,,,0.00,Acu-Link.com,2013-05-04 15:42:00,
2013-05-04 10:58:00,70.3,27.3,29.90,NNW,337,4.7,-999.0,20,-99.99,,,0.00,Acu-Link.com,2013-05-04 15:58:00,
2013-05-04 11:13:00,71.6,27.2,29.90,NE,45,5.3,-999.0,19,-99.99,,,0.00,Acu-Link.com,2013-05-04 16:13:00,
2013-05-04 11:28:00,72.9,28.2,29.90,WSW,247,3.2,-999.0,19,-99.99,,,0.00,Acu-Link.com,2013-05-04 16:28:00,
2013-05-04 11:43:00,72.5,26.6,29.90,South,180,4.7,-999.0,18,-99.99,,,0.00,Acu-Link.com,2013-05-04 16:43:00,
2013-05-04 11:59:00,74.3,28.0,29.89,North,0,6.3,-999.0,18,-99.99,,,0.00,Acu-Link.com,2013-05-04 16:59:00,
2013-05-04 12:14:00,74.3,28.0,29.88,WNW,292,3.7,-999.0,18,-99.99,,,0.00,Acu-Link.com,2013-05-04 17:14:00,
2013-05-04 12:29:00,74.8,28.5,29.87,WSW,247,6.8,-999.0,18,-99.99,,,0.00,Acu-Link.com,2013-05-04 17:29:00,
2013-05-04 12:44:00,75.4,30.3,29.86,WNW,292,6.8,-999.0,19,-99.99,,,0.00,Acu-Link.com,2013-05-04 17:44:00,
2013-05-04 12:59:00,75.4,30.3,29.85,SW,225,1.7,-999.0,19,-99.99,,,0.00,Acu-Link.com,2013-05-04 17:59:00,
2013-05-04 13:15:00,76.6,31.2,29.85,SW,225,3.7,-999.0,19,-99.99,,,0.00,Acu-Link.com,2013-05-04 18:15:00,
2013-05-04 13:30:00,77.7,29.4,29.84,SW,225,4.7,-999.0,17,-99.99,,,0.00,Acu-Link.com,2013-05-04 18:30:00,
2013-05-04 13:45:00,76.6,28.5,29.84,ENE,67,5.3,-999.0,17,-99.99,,,0.00,Acu-Link.com,2013-05-04 18:45:00,
2013-05-04 14:00:00,78.3,28.4,29.83,NE,45,6.8,-999.0,16,-99.99,,,0.00,Acu-Link.com,2013-05-04 19:00:00,
2013-05-04 14:15:00,79.0,29.0,29.83,NNW,337,5.3,-999.0,16,-99.99,,,0.00,Acu-Link.com,2013-05-04 19:15:00,
2013-05-04 14:31:00,79.3,29.2,29.83,WNW,292,6.8,-999.0,16,-99.99,,,0.00,Acu-Link.com,2013-05-04 19:31:00,
2013-05-04 14:46:00,79.3,27.6,29.82,SE,135,1.7,-999.0,15,-99.99,,,0.00,Acu-Link.com,2013-05-04 19:46:00,
2013-05-04 15:01:00,79.0,29.0,29.82,NE,45,4.2,-999.0,16,-99.99,,,0.00,Acu-Link.com,2013-05-04 20:01:00,
2013-05-04 15:17:00,79.3,29.2,29.81,NW,315,5.3,-999.0,16,-99.99,,,0.00,Acu-Link.com,2013-05-04 20:17:00,
2013-05-04 15:32:00,77.7,29.4,29.79,NE,45,4.2,-999.0,17,-99.99,,,0.00,Acu-Link.com,2013-05-04 20:32:00,
2013-05-04 15:47:00,80.1,31.3,29.78,West,270,4.7,-999.0,17,-99.99,,,0.00,Acu-Link.com,2013-05-04 20:47:00,
2013-05-04 16:02:00,82.4,33.2,29.78,West,270,1.7,-999.0,17,-99.99,,,0.00,Acu-Link.com,2013-05-04 21:02:00,
2013-05-04 16:18:00,80.1,31.3,29.77,West,270,7.8,-999.0,17,-99.99,,,0.00,Acu-Link.com,2013-05-04 21:18:00,
2013-05-04 16:33:00,78.6,30.1,29.77,West,270,2.7,-999.0,17,-99.99,,,0.00,Acu-Link.com,2013-05-04 21:33:00,
2013-05-04 16:48:00,79.5,29.4,29.77,NNE,22,3.7,-999.0,16,-99.99,,,0.00,Acu-Link.com,2013-05-04 21:48:00,
2013-05-04 17:03:00,80.6,31.7,29.76,North,0,5.3,-999.0,17,-99.99,,,0.00,Acu-Link.com,2013-05-04 22:03:00,
2013-05-04 17:18:00,81.5,31.0,29.76,SSW,202,4.2,-999.0,16,-99.99,,,0.00,Acu-Link.com,2013-05-04 22:18:00,
2013-05-04 17:33:00,79.7,29.5,29.76,NNW,337,5.8,-999.0,16,-99.99,,,0.00,Acu-Link.com,2013-05-04 22:33:00,
2013-05-04 17:48:00,80.8,30.4,29.76,NNW,337,4.2,-999.0,16,-99.99,,,0.00,Acu-Link.com,2013-05-04 22:48:00,
2013-05-04 18:03:00,79.9,29.7,29.75,NNW,337,3.2,-999.0,16,-99.99,,,0.00,Acu-Link.com,2013-05-04 23:03:00,
2013-05-04 18:18:00,78.4,30.0,29.76,WSW,247,4.7,-999.0,17,-99.99,,,0.00,Acu-Link.com,2013-05-04 23:18:00,
2013-05-04 18:34:00,78.8,28.8,29.75,NNE,22,9.4,-999.0,16,-99.99,,,0.00,Acu-Link.com,2013-05-04 23:34:00,
2013-05-04 18:49:00,78.1,28.3,29.76,WNW,292,4.7,-999.0,16,-99.99,,,0.00,Acu-Link.com,2013-05-04 23:49:00,
2013-05-04 19:04:00,79.7,29.5,29.76,North,0,4.2,-999.0,16,-99.99,,,0.00,Acu-Link.com,2013-05-05 00:04:00,
2013-05-04 19:19:00,78.4,30.0,29.77,NNW,337,1.1,-999.0,17,-99.99,,,0.00,Acu-Link.com,2013-05-05 00:19:00,
2013-05-04 19:35:00,76.8,28.7,29.76,NNW,337,2.2,-999.0,17,-99.99,,,0.00,Acu-Link.com,2013-05-05 00:35:00,
2013-05-04 19:50:00,74.8,29.8,29.77,NNW,337,1.7,-999.0,19,-99.99,,,0.00,Acu-Link.com,2013-05-05 00:50:00,
2013-05-04 20:05:00,72.7,30.5,29.78,NNE,22,0.0,-999.0,21,-99.99,,,0.00,Acu-Link.com,2013-05-05 01:05:00,
2013-05-04 20:21:00,70.3,30.7,29.79,NE,45,2.2,-999.0,23,-99.99,,,0.00,Acu-Link.com,2013-05-05 01:21:00,
2013-05-04 20:36:00,68.2,31.0,29.78,NE,45,3.2,-999.0,25,-99.99,,,0.00,Acu-Link.com,2013-05-05 01:36:00,
2013-05-04 20:51:00,68.2,31.0,29.80,NE,45,3.2,-999.0,25,-99.99,,,0.00,Acu-Link.com,2013-05-05 01:51:00,
2013-05-04 21:07:00,66.6,30.6,29.81,NNE,22,4.7,-999.0,26,-99.99,,,0.00,Acu-Link.com,2013-05-05 02:07:00,
2013-05-04 21:22:00,65.1,31.2,29.82,NNE,22,3.7,-999.0,28,-99.99,,,0.00,Acu-Link.com,2013-05-05 02:22:00,
2013-05-04 21:37:00,64.6,30.8,29.82,NNE,22,4.2,-999.0,28,-99.99,,,0.00,Acu-Link.com,2013-05-05 02:37:00,
2013-05-04 21:52:00,63.5,30.7,29.83,NNE,22,4.2,-999.0,29,-99.99,,,0.00,Acu-Link.com,2013-05-05 02:52:00,
2013-05-04 22:07:00,63.3,30.5,29.83,NE,45,2.7,-999.0,29,-99.99,,,0.00,Acu-Link.com,2013-05-05 03:07:00,
2013-05-04 22:22:00,63.3,30.5,29.84,NNE,22,3.7,-999.0,29,-99.99,,,0.00,Acu-Link.com,2013-05-05 03:22:00,
2013-05-04 22:37:00,63.0,30.2,29.84,NNE,22,4.2,-999.0,29,-99.99,,,0.00,Acu-Link.com,2013-05-05 03:37:00,
2013-05-04 22:52:00,62.8,30.1,29.84,NNE,22,3.7,-999.0,29,-99.99,,,0.00,Acu-Link.com,2013-05-05 03:52:00,
2013-05-04 23:08:00,63.0,30.2,29.84,NE,45,4.2,-999.0,29,-99.99,,,0.00,Acu-Link.com,2013-05-05 04:08:00,
2013-05-04 23:23:00,62.4,29.7,29.85,NNE,22,7.3,-999.0,29,-99.99,,,0.00,Acu-Link.com,2013-05-05 04:23:00,
2013-05-04 23:38:00,62.1,29.5,29.84,NE,45,7.3,-999.0,29,-99.99,,,0.00,Acu-Link.com,2013-05-05 04:38:00,
2013-05-04 23:54:00,62.4,29.7,29.85,North,0,6.8,-999.0,29,-99.99,,,0.00,Acu-Link.com,2013-05-05 04:54:00,